• In Russia
  • List of Countries
  • For 7 days
  • Water Temperature
  • Satellite Maps
  • Weather Map
  • Weather Widgets
  • user-avatar
    Login

    Hourly Weather Rangpur

    Today, 17 October, Tuesday

    Time Temperature Precipitation Wind Pressure Humidity
    00:00 +27°C° 0 mm 2 mps 752 mmHg 77%
    01:00 +27°C° 0 mm 2 mps 752 mmHg 79%
    02:00 +27°C° 0 mm 2 mps 752 mmHg 81%
    03:00 +26°C° 0 mm 2 mps 752 mmHg 83%
    04:00 +26°C° 0 mm 2 mps 752 mmHg 83%
    05:00 +26°C° 0 mm 2 mps 752 mmHg 83%
    06:00 +26°C° 0 mm 2 mps 752 mmHg 83%
    07:00 +27°C° 0 mm 3 mps 753 mmHg 80%
    08:00 +28°C° 0 mm 3 mps 753 mmHg 77%
    09:00 +30°C° 0 mm 4 mps 753 mmHg 73%
    10:00 +32°C° 0 mm 4 mps 753 mmHg 69%
    11:00 +33°C° 0 mm 4 mps 752 mmHg 64%
    12:00 +34°C° 0 mm 4 mps 752 mmHg 60%
    13:00 +34°C° 0 mm 4 mps 751 mmHg 59%
    14:00 +34°C° 0 mm 3 mps 751 mmHg 59%
    15:00 +35°C° 0 mm 3 mps 750 mmHg 58%
    16:00 +32°C° 0 mm 2 mps 750 mmHg 62%
    17:00 +31°C° 0 mm 2 mps 750 mmHg 66%
    18:00 +29°C° 0 mm 2 mps 750 mmHg 71%
    19:00 +29°C° 0 mm 2 mps 751 mmHg 71%
    20:00 +28°C° 0 mm 2 mps 752 mmHg 72%
    21:00 +28°C° 0 mm 2 mps 752 mmHg 73%
    22:00 +28°C° 0 mm 2 mps 752 mmHg 73%
    23:00 +27°C° 0 mm 2 mps 752 mmHg 73%

    Tomorrow, 18 October, Wednesday

    Time Temperature Precipitation Wind Pressure Humidity
    00:00 +27°C° 0 mm 2 mps 752 mmHg 73%
    01:00 +27°C° 0 mm 2 mps 752 mmHg 73%
    02:00 +26°C° 0 mm 2 mps 751 mmHg 72%
    03:00 +26°C° 0 mm 2 mps 751 mmHg 72%
    04:00 +26°C° 0 mm 3 mps 751 mmHg 72%
    05:00 +25°C° 0 mm 3 mps 751 mmHg 71%
    06:00 +25°C° 0 mm 3 mps 752 mmHg 70%
    07:00 +26°C° 0 mm 4 mps 752 mmHg 70%
    08:00 +28°C° 0 mm 4 mps 753 mmHg 69%
    09:00 +29°C° 0 mm 5 mps 753 mmHg 68%
    10:00 +32°C° 0 mm 4 mps 753 mmHg 65%
    11:00 +33°C° 0 mm 4 mps 753 mmHg 62%
    12:00 +35°C° 0 mm 4 mps 752 mmHg 59%
    13:00 +35°C° 0 mm 4 mps 752 mmHg 58%
    14:00 +35°C° 0 mm 3 mps 751 mmHg 58%
    15:00 +35°C° 0 mm 3 mps 750 mmHg 57%
    16:00 +34°C° 0 mm 2 mps 751 mmHg 62%
    17:00 +31°C° 0 mm 2 mps 751 mmHg 66%
    18:00 +30°C° 0 mm 2 mps 751 mmHg 71%
    19:00 +30°C° 0 mm 2 mps 752 mmHg 72%
    20:00 +29°C° 0 mm 2 mps 752 mmHg 73%
    21:00 +29°C° 0 mm 2 mps 753 mmHg 74%
    22:00 +28°C° 0 mm 2 mps 753 mmHg 74%
    23:00 +28°C° 0 mm 2 mps 753 mmHg 74%

    Day after tomorrow, 19 October, Thursday

    Time Temperature Precipitation Wind Pressure Humidity
    00:00 +28°C° 0 mm 2 mps 753 mmHg 74%
    01:00 +27°C° 0 mm 2 mps 753 mmHg 74%
    02:00 +27°C° 0 mm 2 mps 752 mmHg 75%
    03:00 +27°C° 0 mm 2 mps 752 mmHg 75%
    04:00 +27°C° 0.1 mm 2 mps 752 mmHg 75%
    05:00 +27°C° 0.1 mm 2 mps 752 mmHg 75%
    06:00 +26°C° 0.1 mm 2 mps 752 mmHg 76%
    07:00 +27°C° 0.3 mm 2 mps 753 mmHg 77%
    08:00 +28°C° 0.3 mm 3 mps 754 mmHg 77%
    09:00 +28°C° 0.3 mm 3 mps 755 mmHg 78%
    10:00 +29°C° 0.2 mm 3 mps 754 mmHg 76%
    11:00 +30°C° 0.2 mm 3 mps 754 mmHg 74%
    12:00 +31°C° 0.2 mm 2 mps 753 mmHg 71%
    13:00 +31°C° 0.1 mm 2 mps 753 mmHg 70%
    14:00 +31°C° 0.1 mm 2 mps 752 mmHg 69%
    15:00 +32°C° 0.1 mm 2 mps 751 mmHg 68%
    16:00 +30°C° 0.5 mm 2 mps 752 mmHg 73%
    17:00 +29°C° 0.5 mm 2 mps 752 mmHg 78%
    18:00 +28°C° 0.5 mm 2 mps 753 mmHg 83%
    19:00 +28°C° 0.4 mm 2 mps 753 mmHg 85%
    20:00 +28°C° 0.4 mm 2 mps 754 mmHg 87%
    21:00 +27°C° 0.4 mm 2 mps 755 mmHg 88%
    22:00 +27°C° 0.3 mm 2 mps 754 mmHg 89%
    23:00 +27°C° 0.3 mm 2 mps 754 mmHg 90%

    20 October, Friday

    Time Temperature Precipitation Wind Pressure Humidity
    00:00 +27°C° 0.3 mm 1 mps 754 mmHg 91%
    01:00 +27°C° 0.2 mm 2 mps 754 mmHg 91%
    02:00 +26°C° 0.2 mm 2 mps 753 mmHg 91%
    03:00 +26°C° 0.2 mm 2 mps 753 mmHg 92%
    04:00 +26°C° 1.3 mm 2 mps 753 mmHg 92%
    05:00 +26°C° 1.3 mm 3 mps 753 mmHg 92%
    06:00 +26°C° 1.3 mm 3 mps 753 mmHg 92%
    07:00 +26°C° 4.5 mm 3 mps 754 mmHg 92%
    08:00 +26°C° 4.5 mm 4 mps 754 mmHg 93%
    09:00 +26°C° 4.5 mm 4 mps 755 mmHg 93%
    10:00 +26°C° 6.2 mm 5 mps 755 mmHg 93%
    11:00 +26°C° 6.2 mm 5 mps 754 mmHg 94%
    12:00 +26°C° 6.2 mm 5 mps 754 mmHg 94%
    13:00 +26°C° 3.3 mm 6 mps 754 mmHg 94%
    14:00 +24°C° 3.3 mm 6 mps 753 mmHg 94%
    15:00 +24°C° 3.3 mm 6 mps 753 mmHg 94%
    16:00 +24°C° 2.2 mm 6 mps 753 mmHg 94%
    17:00 +25°C° 2.2 mm 5 mps 753 mmHg 94%
    18:00 +25°C° 2.2 mm 5 mps 753 mmHg 94%
    19:00 +25°C° 2.8 mm 5 mps 754 mmHg 94%
    20:00 +25°C° 2.8 mm 4 mps 754 mmHg 94%
    21:00 +25°C° 2.8 mm 4 mps 755 mmHg 95%
    22:00 +25°C° 1.6 mm 4 mps 754 mmHg 95%
    23:00 +25°C° 1.6 mm 4 mps 754 mmHg 95%

    21 October, Saturday

    Time Temperature Precipitation Wind Pressure Humidity
    00:00 +25°C° 1.6 mm 4 mps 754 mmHg 95%
    01:00 +25°C° 1.4 mm 4 mps 753 mmHg 95%
    02:00 +25°C° 1.4 mm 4 mps 753 mmHg 95%
    03:00 +25°C° 1.4 mm 4 mps 752 mmHg 95%
    04:00 +25°C° 0.5 mm 4 mps 752 mmHg 95%
    05:00 +25°C° 0.5 mm 4 mps 753 mmHg 95%
    06:00 +25°C° 0.5 mm 4 mps 753 mmHg 95%
    07:00 +25°C° 0.7 mm 4 mps 753 mmHg 94%
    08:00 +25°C° 0.7 mm 4 mps 754 mmHg 92%
    09:00 +26°C° 0.7 mm 5 mps 754 mmHg 91%
    10:00 +26°C° 0.5 mm 5 mps 754 mmHg 90%
    11:00 +26°C° 0.5 mm 5 mps 753 mmHg 89%
    12:00 +26°C° 0.5 mm 5 mps 753 mmHg 88%
    13:00 +27°C° 0.2 mm 5 mps 752 mmHg 88%
    14:00 +27°C° 0.2 mm 4 mps 752 mmHg 87%
    15:00 +27°C° 0.2 mm 4 mps 751 mmHg 87%
    16:00 +27°C° 0.2 mm 4 mps 751 mmHg 88%
    17:00 +26°C° 0.2 mm 3 mps 751 mmHg 89%
    18:00 +26°C° 0.2 mm 3 mps 751 mmHg 90%
    19:00 +26°C° 0.7 mm 3 mps 752 mmHg 91%
    20:00 +26°C° 0.7 mm 3 mps 752 mmHg 91%
    21:00 +25°C° 0.7 mm 3 mps 753 mmHg 92%
    22:00 +25°C° 4.4 mm 4 mps 752 mmHg 93%
    23:00 +25°C° 4.4 mm 4 mps 752 mmHg 94%

    22 October, Sunday

    Time Temperature Precipitation Wind Pressure Humidity
    00:00 +25°C° 4.4 mm 4 mps 752 mmHg 95%
    01:00 +25°C° 5.4 mm 4 mps 751 mmHg 95%
    02:00 +25°C° 5.4 mm 5 mps 751 mmHg 95%
    03:00 +25°C° 5.4 mm 5 mps 750 mmHg 95%
    04:00 +25°C° 3.1 mm 5 mps 751 mmHg 95%
    05:00 +25°C° 3.1 mm 5 mps 751 mmHg 95%
    06:00 +25°C° 3.1 mm 5 mps 751 mmHg 95%
    07:00 +25°C° 1.4 mm 5 mps 751 mmHg 94%
    08:00 +24°C° 1.4 mm 6 mps 752 mmHg 94%
    09:00 +24°C° 1.4 mm 6 mps 753 mmHg 93%
    10:00 +24°C° 0.3 mm 6 mps 752 mmHg 93%
    11:00 +24°C° 0.3 mm 6 mps 752 mmHg 92%
    12:00 +24°C° 0.3 mm 6 mps 752 mmHg 92%
    13:00 +26°C° 0 mm 6 mps 751 mmHg 91%
    14:00 +26°C° 0 mm 6 mps 750 mmHg 89%
    15:00 +26°C° 0 mm 5 mps 750 mmHg 88%
    16:00 +26°C° 0 mm 5 mps 750 mmHg 89%
    17:00 +26°C° 0 mm 4 mps 750 mmHg 89%
    18:00 +26°C° 0 mm 4 mps 751 mmHg 89%
    19:00 +25°C° 0.1 mm 4 mps 751 mmHg 89%
    20:00 +25°C° 0.1 mm 4 mps 752 mmHg 89%
    21:00 +25°C° 0.1 mm 4 mps 752 mmHg 89%
    22:00 +25°C° 0.2 mm 4 mps 752 mmHg 90%
    23:00 +25°C° 0.2 mm 4 mps 752 mmHg 90%
    Show more